Flight Briefing for CMB836

Departure Arrival
Kuwait International Airport (OKBK)
Click to view FAA NOTAMS
Ramstein Air Force Base (ETAR)
Click to view FAA NOTAMS
Departure Time Arrival Time
N/A N/A
Aircraft Distance
B767-300BDSF 2299nm
Departure METAR Arrival METAR
OKBK 250300Z 18003KT 6000 SKC 26/15 Q1010 NOSIG ETAR 250256Z AUTO 00000KT 9999 SCT070 BKN095 BKN110 11/10 A2997 RMK AO2 SLP147 T01050097 53001 $
Suggested Route
RALKA3F RALKA G795 TASMI L602 ALPET UM860 SRT UG8 ULSAB UT334 INB UL746 ODERO T86 MATEL T746 NEPOT L746 EVRIK L850 BUDOP LAMSI L604 SULUS L984 FFM


View recent IFR Routes data
Notes
USTRANSCOM CONTRACT FLIGHT

Charts and Procedures

Charts for OKBK
No chart available
Charts for ETAR
No chart available

Windy.com Weather Map